Date_Time,Julian_Date,Latitude,Longitude,Instrument_Depth,Water_Temperature
(yyyy-mm-dd hh:mn:ss UTC),(JD),(+ deg. North),(+ deg. East),(m),(deg. C)
1982-01-24 16:00:00 UTC,2444994.166667,29.4519,-93.4333,0037,13.6000
1982-01-24 16:30:00 UTC,2444994.187500,29.4519,-93.4333,0037,13.7000
1982-01-24 17:00:00 UTC,2444994.208333,29.4519,-93.4333,0037,13.7000
1982-01-24 17:30:00 UTC,2444994.229167,29.4519,-93.4333,0037,13.8000
1982-01-24 18:00:00 UTC,2444994.250000,29.4519,-93.4333,0037,13.8000
1982-01-24 18:30:00 UTC,2444994.270833,29.4519,-93.4333,0037,13.9000
1982-01-24 19:00:00 UTC,2444994.291667,29.4519,-93.4333,0037,14.0000
1982-01-24 19:30:00 UTC,2444994.312500,29.4519,-93.4333,0037,14.1000
1982-01-24 20:00:00 UTC,2444994.333333,29.4519,-93.4333,0037,14.1000
1982-01-24 20:30:00 UTC,2444994.354167,29.4519,-93.4333,0037,14.1000
1982-01-24 21:00:00 UTC,2444994.375000,29.4519,-93.4333,0037,14.1000
1982-01-24 21:30:00 UTC,2444994.395833,29.4519,-93.4333,0037,14.1000
1982-01-24 22:00:00 UTC,2444994.416667,29.4519,-93.4333,0037,14.1000
1982-01-24 22:30:00 UTC,2444994.437500,29.4519,-93.4333,0037,14.1000
1982-01-24 23:00:00 UTC,2444994.458333,29.4519,-93.4333,0037,14.1000
1982-01-24 23:30:00 UTC,2444994.479167,29.4519,-93.4333,0037,14.0000
1982-01-25 00:00:00 UTC,2444994.500000,29.4519,-93.4333,0037,14.0000
1982-01-25 00:30:00 UTC,2444994.520833,29.4519,-93.4333,0037,14.0000
1982-01-25 01:00:00 UTC,2444994.541667,29.4519,-93.4333,0037,14.0000
1982-01-25 01:30:00 UTC,2444994.562500,29.4519,-93.4333,0037,13.9000
1982-01-25 02:00:00 UTC,2444994.583333,29.4519,-93.4333,0037,13.9000
1982-01-25 02:30:00 UTC,2444994.604167,29.4519,-93.4333,0037,13.8000
1982-01-25 03:00:00 UTC,2444994.625000,29.4519,-93.4333,0037,13.8000
1982-01-25 03:30:00 UTC,2444994.645833,29.4519,-93.4333,0037,13.7000
1982-01-25 04:00:00 UTC,2444994.666667,29.4519,-93.4333,0037,13.7000
1982-01-25 04:30:00 UTC,2444994.687500,29.4519,-93.4333,0037,13.6000
1982-01-25 05:00:00 UTC,2444994.708333,29.4519,-93.4333,0037,13.6000
1982-01-25 05:30:00 UTC,2444994.729167,29.4519,-93.4333,0037,13.6000
1982-01-25 06:00:00 UTC,2444994.750000,29.4519,-93.4333,0037,13.5000
1982-01-25 06:30:00 UTC,2444994.770833,29.4519,-93.4333,0037,13.5000
1982-01-25 07:00:00 UTC,2444994.791667,29.4519,-93.4333,0037,13.5000
1982-01-25 07:30:00 UTC,2444994.812500,29.4519,-93.4333,0037,13.5000
1982-01-25 08:00:00 UTC,2444994.833333,29.4519,-93.4333,0037,13.4000
1982-01-25 08:30:00 UTC,2444994.854167,29.4519,-93.4333,0037,13.4000
1982-01-25 09:00:00 UTC,2444994.875000,29.4519,-93.4333,0037,13.5000
1982-01-25 09:30:00 UTC,2444994.895833,29.4519,-93.4333,0037,13.5000
1982-01-25 10:00:00 UTC,2444994.916667,29.4519,-93.4333,0037,13.5000
1982-01-25 10:30:00 UTC,2444994.937500,29.4519,-93.4333,0037,13.5000
1982-01-25 11:00:00 UTC,2444994.958333,29.4519,-93.4333,0037,13.4000
1982-01-25 11:30:00 UTC,2444994.979167,29.4519,-93.4333,0037,13.4000
1982-01-25 12:00:00 UTC,2444995.000000,29.4519,-93.4333,0037,13.3000
1982-01-25 12:30:00 UTC,2444995.020833,29.4519,-93.4333,0037,13.3000
1982-01-25 13:00:00 UTC,2444995.041667,29.4519,-93.4333,0037,13.4000
1982-01-25 13:30:00 UTC,2444995.062500,29.4519,-93.4333,0037,13.4000
1982-01-25 14:00:00 UTC,2444995.083333,29.4519,-93.4333,0037,13.4000
1982-01-25 14:30:00 UTC,2444995.104167,29.4519,-93.4333,0037,13.4000
1982-01-25 15:00:00 UTC,2444995.125000,29.4519,-93.4333,0037,13.4000
1982-01-25 15:30:00 UTC,2444995.145833,29.4519,-93.4333,0037,13.4000
1982-01-25 16:00:00 UTC,2444995.166667,29.4519,-93.4333,0037,13.4000
1982-01-25 16:30:00 UTC,2444995.187500,29.4519,-93.4333,0037,13.4000
1982-01-25 17:00:00 UTC,2444995.208333,29.4519,-93.4333,0037,13.4000
1982-01-25 17:30:00 UTC,2444995.229167,29.4519,-93.4333,0037,13.5000
1982-01-25 18:00:00 UTC,2444995.250000,29.4519,-93.4333,0037,13.4000
1982-01-25 18:30:00 UTC,2444995.270833,29.4519,-93.4333,0037,13.4000
1982-01-25 19:00:00 UTC,2444995.291667,29.4519,-93.4333,0037,13.4000
1982-01-25 19:30:00 UTC,2444995.312500,29.4519,-93.4333,0037,13.4000
1982-01-25 20:00:00 UTC,2444995.333333,29.4519,-93.4333,0037,13.4000
1982-01-25 20:30:00 UTC,2444995.354167,29.4519,-93.4333,0037,13.4000
1982-01-25 21:00:00 UTC,2444995.375000,29.4519,-93.4333,0037,13.4000
1982-01-25 21:30:00 UTC,2444995.395833,29.4519,-93.4333,0037,13.4000
1982-01-25 22:00:00 UTC,2444995.416667,29.4519,-93.4333,0037,13.4000
1982-01-25 22:30:00 UTC,2444995.437500,29.4519,-93.4333,0037,13.4000
1982-01-25 23:00:00 UTC,2444995.458333,29.4519,-93.4333,0037,13.4000
1982-01-25 23:30:00 UTC,2444995.479167,29.4519,-93.4333,0037,13.4000
1982-01-26 00:00:00 UTC,2444995.500000,29.4519,-93.4333,0037,13.4000
1982-01-26 00:30:00 UTC,2444995.520833,29.4519,-93.4333,0037,13.4000
1982-01-26 01:00:00 UTC,2444995.541667,29.4519,-93.4333,0037,13.4000
1982-01-26 01:30:00 UTC,2444995.562500,29.4519,-93.4333,0037,13.4000
1982-01-26 02:00:00 UTC,2444995.583333,29.4519,-93.4333,0037,13.4000
1982-01-26 02:30:00 UTC,2444995.604167,29.4519,-93.4333,0037,13.4000
1982-01-26 03:00:00 UTC,2444995.625000,29.4519,-93.4333,0037,13.5000
1982-01-26 03:30:00 UTC,2444995.645833,29.4519,-93.4333,0037,13.5000
1982-01-26 04:00:00 UTC,2444995.666667,29.4519,-93.4333,0037,13.5000
1982-01-26 04:30:00 UTC,2444995.687500,29.4519,-93.4333,0037,13.5000
1982-01-26 05:00:00 UTC,2444995.708333,29.4519,-93.4333,0037,13.5000
1982-01-26 05:30:00 UTC,2444995.729167,29.4519,-93.4333,0037,13.5000
1982-01-26 06:00:00 UTC,2444995.750000,29.4519,-93.4333,0037,13.5000
1982-01-26 06:30:00 UTC,2444995.770833,29.4519,-93.4333,0037,13.5000
1982-01-26 07:00:00 UTC,2444995.791667,29.4519,-93.4333,0037,13.5000
1982-01-26 07:30:00 UTC,2444995.812500,29.4519,-93.4333,0037,13.4000
1982-01-26 08:00:00 UTC,2444995.833333,29.4519,-93.4333,0037,13.4000
1982-01-26 08:30:00 UTC,2444995.854167,29.4519,-93.4333,0037,13.4000
1982-01-26 09:00:00 UTC,2444995.875000,29.4519,-93.4333,0037,13.4000
1982-01-26 09:30:00 UTC,2444995.895833,29.4519,-93.4333,0037,13.3000
1982-01-26 10:00:00 UTC,2444995.916667,29.4519,-93.4333,0037,13.3000
1982-01-26 10:30:00 UTC,2444995.937500,29.4519,-93.4333,0037,13.3000
1982-01-26 11:00:00 UTC,2444995.958333,29.4519,-93.4333,0037,13.3000
1982-01-26 11:30:00 UTC,2444995.979167,29.4519,-93.4333,0037,13.2000
1982-01-26 12:00:00 UTC,2444996.000000,29.4519,-93.4333,0037,13.2000
1982-01-26 12:30:00 UTC,2444996.020833,29.4519,-93.4333,0037,13.2000
1982-01-26 13:00:00 UTC,2444996.041667,29.4519,-93.4333,0037,13.1000
1982-01-26 13:30:00 UTC,2444996.062500,29.4519,-93.4333,0037,13.1000
1982-01-26 14:00:00 UTC,2444996.083333,29.4519,-93.4333,0037,13.1000
1982-01-26 14:30:00 UTC,2444996.104167,29.4519,-93.4333,0037,13.1000
1982-01-26 15:00:00 UTC,2444996.125000,29.4519,-93.4333,0037,13.1000
1982-01-26 15:30:00 UTC,2444996.145833,29.4519,-93.4333,0037,13.0000
1982-01-26 16:00:00 UTC,2444996.166667,29.4519,-93.4333,0037,13.0000
1982-01-26 16:30:00 UTC,2444996.187500,29.4519,-93.4333,0037,13.0000
1982-01-26 17:00:00 UTC,2444996.208333,29.4519,-93.4333,0037,13.0000
1982-01-26 17:30:00 UTC,2444996.229167,29.4519,-93.4333,0037,13.0000
1982-01-26 18:00:00 UTC,2444996.250000,29.4519,-93.4333,0037,13.0000
1982-01-26 18:30:00 UTC,2444996.270833,29.4519,-93.4333,0037,13.1000
1982-01-26 19:00:00 UTC,2444996.291667,29.4519,-93.4333,0037,13.1000
1982-01-26 19:30:00 UTC,2444996.312500,29.4519,-93.4333,0037,13.1000
1982-01-26 20:00:00 UTC,2444996.333333,29.4519,-93.4333,0037,13.1000
1982-01-26 20:30:00 UTC,2444996.354167,29.4519,-93.4333,0037,13.1000
1982-01-26 21:00:00 UTC,2444996.375000,29.4519,-93.4333,0037,13.1000
1982-01-26 21:30:00 UTC,2444996.395833,29.4519,-93.4333,0037,13.0000
1982-01-26 22:00:00 UTC,2444996.416667,29.4519,-93.4333,0037,13.0000
1982-01-26 22:30:00 UTC,2444996.437500,29.4519,-93.4333,0037,13.0000
1982-01-26 23:00:00 UTC,2444996.458333,29.4519,-93.4333,0037,13.0000
1982-01-26 23:30:00 UTC,2444996.479167,29.4519,-93.4333,0037,13.0000
1982-01-27 00:00:00 UTC,2444996.500000,29.4519,-93.4333,0037,13.0000
1982-01-27 00:30:00 UTC,2444996.520833,29.4519,-93.4333,0037,12.9000
1982-01-27 01:00:00 UTC,2444996.541667,29.4519,-93.4333,0037,12.9000
1982-01-27 01:30:00 UTC,2444996.562500,29.4519,-93.4333,0037,12.9000
1982-01-27 02:00:00 UTC,2444996.583333,29.4519,-93.4333,0037,12.9000
1982-01-27 02:30:00 UTC,2444996.604167,29.4519,-93.4333,0037,12.9000
1982-01-27 03:00:00 UTC,2444996.625000,29.4519,-93.4333,0037,12.9000
1982-01-27 03:30:00 UTC,2444996.645833,29.4519,-93.4333,0037,12.9000
1982-01-27 04:00:00 UTC,2444996.666667,29.4519,-93.4333,0037,12.9000
1982-01-27 04:30:00 UTC,2444996.687500,29.4519,-93.4333,0037,12.9000
1982-01-27 05:00:00 UTC,2444996.708333,29.4519,-93.4333,0037,12.9000
1982-01-27 05:30:00 UTC,2444996.729167,29.4519,-93.4333,0037,12.9000
1982-01-27 06:00:00 UTC,2444996.750000,29.4519,-93.4333,0037,12.9000
1982-01-27 06:30:00 UTC,2444996.770833,29.4519,-93.4333,0037,12.9000
1982-01-27 07:00:00 UTC,2444996.791667,29.4519,-93.4333,0037,12.8000
1982-01-27 07:30:00 UTC,2444996.812500,29.4519,-93.4333,0037,12.8000
1982-01-27 08:00:00 UTC,2444996.833333,29.4519,-93.4333,0037,12.8000
1982-01-27 08:30:00 UTC,2444996.854167,29.4519,-93.4333,0037,12.8000
1982-01-27 09:00:00 UTC,2444996.875000,29.4519,-93.4333,0037,12.8000
1982-01-27 09:30:00 UTC,2444996.895833,29.4519,-93.4333,0037,12.8000
1982-01-27 10:00:00 UTC,2444996.916667,29.4519,-93.4333,0037,12.8000
1982-01-27 10:30:00 UTC,2444996.937500,29.4519,-93.4333,0037,12.8000
1982-01-27 11:00:00 UTC,2444996.958333,29.4519,-93.4333,0037,12.8000
1982-01-27 11:30:00 UTC,2444996.979167,29.4519,-93.4333,0037,12.8000
1982-01-27 12:00:00 UTC,2444997.000000,29.4519,-93.4333,0037,12.7000
1982-01-27 12:30:00 UTC,2444997.020833,29.4519,-93.4333,0037,12.7000
1982-01-27 13:00:00 UTC,2444997.041667,29.4519,-93.4333,0037,12.7000
1982-01-27 13:30:00 UTC,2444997.062500,29.4519,-93.4333,0037,12.7000
1982-01-27 14:00:00 UTC,2444997.083333,29.4519,-93.4333,0037,12.7000
1982-01-27 14:30:00 UTC,2444997.104167,29.4519,-93.4333,0037,12.7000
1982-01-27 15:00:00 UTC,2444997.125000,29.4519,-93.4333,0037,12.7000
1982-01-27 15:30:00 UTC,2444997.145833,29.4519,-93.4333,0037,12.6000
1982-01-27 16:00:00 UTC,2444997.166667,29.4519,-93.4333,0037,12.6000
1982-01-27 16:30:00 UTC,2444997.187500,29.4519,-93.4333,0037,12.7000
1982-01-27 17:00:00 UTC,2444997.208333,29.4519,-93.4333,0037,12.7000
1982-01-27 17:30:00 UTC,2444997.229167,29.4519,-93.4333,0037,12.8000
1982-01-27 18:00:00 UTC,2444997.250000,29.4519,-93.4333,0037,12.8000
1982-01-27 18:30:00 UTC,2444997.270833,29.4519,-93.4333,0037,12.8000
1982-01-27 19:00:00 UTC,2444997.291667,29.4519,-93.4333,0037,12.8000
1982-01-27 19:30:00 UTC,2444997.312500,29.4519,-93.4333,0037,12.8000
1982-01-27 20:00:00 UTC,2444997.333333,29.4519,-93.4333,0037,12.8000
1982-01-27 20:30:00 UTC,2444997.354167,29.4519,-93.4333,0037,12.9000
1982-01-27 21:00:00 UTC,2444997.375000,29.4519,-93.4333,0037,12.9000
1982-01-27 21:30:00 UTC,2444997.395833,29.4519,-93.4333,0037,12.9000
1982-01-27 22:00:00 UTC,2444997.416667,29.4519,-93.4333,0037,12.8000
1982-01-27 22:30:00 UTC,2444997.437500,29.4519,-93.4333,0037,12.8000
1982-01-27 23:00:00 UTC,2444997.458333,29.4519,-93.4333,0037,12.8000
1982-01-27 23:30:00 UTC,2444997.479167,29.4519,-93.4333,0037,12.8000
1982-01-28 00:00:00 UTC,2444997.500000,29.4519,-93.4333,0037,12.8000
1982-01-28 00:30:00 UTC,2444997.520833,29.4519,-93.4333,0037,12.8000
1982-01-28 01:00:00 UTC,2444997.541667,29.4519,-93.4333,0037,12.7000
1982-01-28 01:30:00 UTC,2444997.562500,29.4519,-93.4333,0037,12.6000
1982-01-28 02:00:00 UTC,2444997.583333,29.4519,-93.4333,0037,12.6000
1982-01-28 02:30:00 UTC,2444997.604167,29.4519,-93.4333,0037,12.6000
1982-01-28 03:00:00 UTC,2444997.625000,29.4519,-93.4333,0037,12.6000
1982-01-28 03:30:00 UTC,2444997.645833,29.4519,-93.4333,0037,12.6000
1982-01-28 04:00:00 UTC,2444997.666667,29.4519,-93.4333,0037,12.6000
1982-01-28 04:30:00 UTC,2444997.687500,29.4519,-93.4333,0037,12.6000
1982-01-28 05:00:00 UTC,2444997.708333,29.4519,-93.4333,0037,12.6000
1982-01-28 05:30:00 UTC,2444997.729167,29.4519,-93.4333,0037,12.6000
1982-01-28 06:00:00 UTC,2444997.750000,29.4519,-93.4333,0037,12.6000
1982-01-28 06:30:00 UTC,2444997.770833,29.4519,-93.4333,0037,12.6000
1982-01-28 07:00:00 UTC,2444997.791667,29.4519,-93.4333,0037,12.6000
1982-01-28 07:30:00 UTC,2444997.812500,29.4519,-93.4333,0037,12.6000
1982-01-28 08:00:00 UTC,2444997.833333,29.4519,-93.4333,0037,12.6000
1982-01-28 08:30:00 UTC,2444997.854167,29.4519,-93.4333,0037,12.6000
1982-01-28 09:00:00 UTC,2444997.875000,29.4519,-93.4333,0037,12.6000
1982-01-28 09:30:00 UTC,2444997.895833,29.4519,-93.4333,0037,12.6000
1982-01-28 10:00:00 UTC,2444997.916667,29.4519,-93.4333,0037,12.6000
1982-01-28 10:30:00 UTC,2444997.937500,29.4519,-93.4333,0037,12.6000
1982-01-28 11:00:00 UTC,2444997.958333,29.4519,-93.4333,0037,12.6000
1982-01-28 11:30:00 UTC,2444997.979167,29.4519,-93.4333,0037,12.6000
1982-01-28 12:00:00 UTC,2444998.000000,29.4519,-93.4333,0037,12.6000
1982-01-28 12:30:00 UTC,2444998.020833,29.4519,-93.4333,0037,12.6000
1982-01-28 13:00:00 UTC,2444998.041667,29.4519,-93.4333,0037,12.6000
1982-01-28 13:30:00 UTC,2444998.062500,29.4519,-93.4333,0037,12.6000
1982-01-28 14:00:00 UTC,2444998.083333,29.4519,-93.4333,0037,12.6000
1982-01-28 14:30:00 UTC,2444998.104167,29.4519,-93.4333,0037,12.6000
1982-01-28 15:00:00 UTC,2444998.125000,29.4519,-93.4333,0037,12.5000
1982-01-28 15:30:00 UTC,2444998.145833,29.4519,-93.4333,0037,12.5000
1982-01-28 16:00:00 UTC,2444998.166667,29.4519,-93.4333,0037,12.5000
1982-01-28 16:30:00 UTC,2444998.187500,29.4519,-93.4333,0037,12.5000
1982-01-28 17:00:00 UTC,2444998.208333,29.4519,-93.4333,0037,12.5000
1982-01-28 17:30:00 UTC,2444998.229167,29.4519,-93.4333,0037,12.5000
1982-01-28 18:00:00 UTC,2444998.250000,29.4519,-93.4333,0037,12.5000
1982-01-28 18:30:00 UTC,2444998.270833,29.4519,-93.4333,0037,12.5000
1982-01-28 19:00:00 UTC,2444998.291667,29.4519,-93.4333,0037,12.5000
1982-01-28 19:30:00 UTC,2444998.312500,29.4519,-93.4333,0037,12.6000
1982-01-28 20:00:00 UTC,2444998.333333,29.4519,-93.4333,0037,12.7000
1982-01-28 20:30:00 UTC,2444998.354167,29.4519,-93.4333,0037,12.7000
1982-01-28 21:00:00 UTC,2444998.375000,29.4519,-93.4333,0037,12.7000
1982-01-28 21:30:00 UTC,2444998.395833,29.4519,-93.4333,0037,12.7000
1982-01-28 22:00:00 UTC,2444998.416667,29.4519,-93.4333,0037,12.7000
1982-01-28 22:30:00 UTC,2444998.437500,29.4519,-93.4333,0037,12.8000
1982-01-28 23:00:00 UTC,2444998.458333,29.4519,-93.4333,0037,12.8000
1982-01-28 23:30:00 UTC,2444998.479167,29.4519,-93.4333,0037,12.8000
1982-01-29 00:00:00 UTC,2444998.500000,29.4519,-93.4333,0037,12.8000
1982-01-29 00:30:00 UTC,2444998.520833,29.4519,-93.4333,0037,12.8000
1982-01-29 01:00:00 UTC,2444998.541667,29.4519,-93.4333,0037,12.7000
1982-01-29 01:30:00 UTC,2444998.562500,29.4519,-93.4333,0037,12.7000
1982-01-29 02:00:00 UTC,2444998.583333,29.4519,-93.4333,0037,12.7000
1982-01-29 02:30:00 UTC,2444998.604167,29.4519,-93.4333,0037,12.8000
1982-01-29 03:00:00 UTC,2444998.625000,29.4519,-93.4333,0037,12.8000
1982-01-29 03:30:00 UTC,2444998.645833,29.4519,-93.4333,0037,12.8000
1982-01-29 04:00:00 UTC,2444998.666667,29.4519,-93.4333,0037,12.8000
1982-01-29 04:30:00 UTC,2444998.687500,29.4519,-93.4333,0037,12.8000
1982-01-29 05:00:00 UTC,2444998.708333,29.4519,-93.4333,0037,12.8000
1982-01-29 05:30:00 UTC,2444998.729167,29.4519,-93.4333,0037,12.8000
1982-01-29 06:00:00 UTC,2444998.750000,29.4519,-93.4333,0037,12.9000
1982-01-29 06:30:00 UTC,2444998.770833,29.4519,-93.4333,0037,12.9000
1982-01-29 07:00:00 UTC,2444998.791667,29.4519,-93.4333,0037,12.9000
1982-01-29 07:30:00 UTC,2444998.812500,29.4519,-93.4333,0037,12.8000
1982-01-29 08:00:00 UTC,2444998.833333,29.4519,-93.4333,0037,12.8000
1982-01-29 08:30:00 UTC,2444998.854167,29.4519,-93.4333,0037,12.9000
1982-01-29 09:00:00 UTC,2444998.875000,29.4519,-93.4333,0037,12.9000
1982-01-29 09:30:00 UTC,2444998.895833,29.4519,-93.4333,0037,12.9000
1982-01-29 10:00:00 UTC,2444998.916667,29.4519,-93.4333,0037,12.9000
1982-01-29 10:30:00 UTC,2444998.937500,29.4519,-93.4333,0037,12.9000
1982-01-29 11:00:00 UTC,2444998.958333,29.4519,-93.4333,0037,12.8000
1982-01-29 11:30:00 UTC,2444998.979167,29.4519,-93.4333,0037,12.8000
1982-01-29 12:00:00 UTC,2444999.000000,29.4519,-93.4333,0037,12.8000
1982-01-29 12:30:00 UTC,2444999.020833,29.4519,-93.4333,0037,12.8000
1982-01-29 13:00:00 UTC,2444999.041667,29.4519,-93.4333,0037,12.7000
1982-01-29 13:30:00 UTC,2444999.062500,29.4519,-93.4333,0037,12.6000
1982-01-29 14:00:00 UTC,2444999.083333,29.4519,-93.4333,0037,12.6000
1982-01-29 14:30:00 UTC,2444999.104167,29.4519,-93.4333,0037,12.6000
1982-01-29 15:00:00 UTC,2444999.125000,29.4519,-93.4333,0037,12.6000
1982-01-29 15:30:00 UTC,2444999.145833,29.4519,-93.4333,0037,12.7000
1982-01-29 16:00:00 UTC,2444999.166667,29.4519,-93.4333,0037,12.7000
1982-01-29 16:30:00 UTC,2444999.187500,29.4519,-93.4333,0037,12.7000
1982-01-29 17:00:00 UTC,2444999.208333,29.4519,-93.4333,0037,12.7000
1982-01-29 17:30:00 UTC,2444999.229167,29.4519,-93.4333,0037,12.7000
1982-01-29 18:00:00 UTC,2444999.250000,29.4519,-93.4333,0037,12.7000
1982-01-29 18:30:00 UTC,2444999.270833,29.4519,-93.4333,0037,12.7000
1982-01-29 19:00:00 UTC,2444999.291667,29.4519,-93.4333,0037,12.7000
1982-01-29 19:30:00 UTC,2444999.312500,29.4519,-93.4333,0037,12.8000
1982-01-29 20:00:00 UTC,2444999.333333,29.4519,-93.4333,0037,12.8000
1982-01-29 20:30:00 UTC,2444999.354167,29.4519,-93.4333,0037,12.9000
1982-01-29 21:00:00 UTC,2444999.375000,29.4519,-93.4333,0037,13.0000
1982-01-29 21:30:00 UTC,2444999.395833,29.4519,-93.4333,0037,13.1000
1982-01-29 22:00:00 UTC,2444999.416667,29.4519,-93.4333,0037,13.1000
1982-01-29 22:30:00 UTC,2444999.437500,29.4519,-93.4333,0037,13.1000
1982-01-29 23:00:00 UTC,2444999.458333,29.4519,-93.4333,0037,13.1000
1982-01-29 23:30:00 UTC,2444999.479167,29.4519,-93.4333,0037,13.1000
1982-01-30 00:00:00 UTC,2444999.500000,29.4519,-93.4333,0037,13.1000
1982-01-30 00:30:00 UTC,2444999.520833,29.4519,-93.4333,0037,13.0000
1982-01-30 01:00:00 UTC,2444999.541667,29.4519,-93.4333,0037,13.0000
1982-01-30 01:30:00 UTC,2444999.562500,29.4519,-93.4333,0037,13.0000
1982-01-30 02:00:00 UTC,2444999.583333,29.4519,-93.4333,0037,13.0000
1982-01-30 02:30:00 UTC,2444999.604167,29.4519,-93.4333,0037,13.1000
1982-01-30 03:00:00 UTC,2444999.625000,29.4519,-93.4333,0037,13.1000
1982-01-30 03:30:00 UTC,2444999.645833,29.4519,-93.4333,0037,13.1000
1982-01-30 04:00:00 UTC,2444999.666667,29.4519,-93.4333,0037,13.1000
1982-01-30 04:30:00 UTC,2444999.687500,29.4519,-93.4333,0037,13.1000
1982-01-30 05:00:00 UTC,2444999.708333,29.4519,-93.4333,0037,13.1000
1982-01-30 05:30:00 UTC,2444999.729167,29.4519,-93.4333,0037,13.1000
1982-01-30 06:00:00 UTC,2444999.750000,29.4519,-93.4333,0037,13.0000
1982-01-30 06:30:00 UTC,2444999.770833,29.4519,-93.4333,0037,13.0000
1982-01-30 07:00:00 UTC,2444999.791667,29.4519,-93.4333,0037,13.0000
1982-01-30 07:30:00 UTC,2444999.812500,29.4519,-93.4333,0037,13.0000
1982-01-30 08:00:00 UTC,2444999.833333,29.4519,-93.4333,0037,13.0000
1982-01-30 08:30:00 UTC,2444999.854167,29.4519,-93.4333,0037,13.1000
1982-01-30 09:00:00 UTC,2444999.875000,29.4519,-93.4333,0037,13.2000
1982-01-30 09:30:00 UTC,2444999.895833,29.4519,-93.4333,0037,13.2000
1982-01-30 10:00:00 UTC,2444999.916667,29.4519,-93.4333,0037,13.3000
1982-01-30 10:30:00 UTC,2444999.937500,29.4519,-93.4333,0037,13.3000
1982-01-30 11:00:00 UTC,2444999.958333,29.4519,-93.4333,0037,13.4000
1982-01-30 11:30:00 UTC,2444999.979167,29.4519,-93.4333,0037,13.4000
1982-01-30 12:00:00 UTC,2445000.000000,29.4519,-93.4333,0037,13.5000
1982-01-30 12:30:00 UTC,2445000.020833,29.4519,-93.4333,0037,13.7000
1982-01-30 13:00:00 UTC,2445000.041667,29.4519,-93.4333,0037,13.8000
1982-01-30 13:30:00 UTC,2445000.062500,29.4519,-93.4333,0037,13.9000
1982-01-30 14:00:00 UTC,2445000.083333,29.4519,-93.4333,0037,13.9000
1982-01-30 14:30:00 UTC,2445000.104167,29.4519,-93.4333,0037,14.0000
1982-01-30 15:00:00 UTC,2445000.125000,29.4519,-93.4333,0037,14.0000
1982-01-30 15:30:00 UTC,2445000.145833,29.4519,-93.4333,0037,14.0000
1982-01-30 16:00:00 UTC,2445000.166667,29.4519,-93.4333,0037,14.0000
1982-01-30 16:30:00 UTC,2445000.187500,29.4519,-93.4333,0037,13.9000
1982-01-30 17:00:00 UTC,2445000.208333,29.4519,-93.4333,0037,13.9000
1982-01-30 17:30:00 UTC,2445000.229167,29.4519,-93.4333,0037,13.9000
1982-01-30 18:00:00 UTC,2445000.250000,29.4519,-93.4333,0037,13.9000
1982-01-30 18:30:00 UTC,2445000.270833,29.4519,-93.4333,0037,13.9000
1982-01-30 19:00:00 UTC,2445000.291667,29.4519,-93.4333,0037,13.9000
1982-01-30 19:30:00 UTC,2445000.312500,29.4519,-93.4333,0037,13.9000
1982-01-30 20:00:00 UTC,2445000.333333,29.4519,-93.4333,0037,13.9000
1982-01-30 20:30:00 UTC,2445000.354167,29.4519,-93.4333,0037,14.0000
1982-01-30 21:00:00 UTC,2445000.375000,29.4519,-93.4333,0037,14.1000
1982-01-30 21:30:00 UTC,2445000.395833,29.4519,-93.4333,0037,14.3000
1982-01-30 22:00:00 UTC,2445000.416667,29.4519,-93.4333,0037,14.4000
1982-01-30 22:30:00 UTC,2445000.437500,29.4519,-93.4333,0037,14.5000
1982-01-30 23:00:00 UTC,2445000.458333,29.4519,-93.4333,0037,14.6000
1982-01-30 23:30:00 UTC,2445000.479167,29.4519,-93.4333,0037,14.6000
1982-01-31 00:00:00 UTC,2445000.500000,29.4519,-93.4333,0037,14.7000
1982-01-31 00:30:00 UTC,2445000.520833,29.4519,-93.4333,0037,14.7000
1982-01-31 01:00:00 UTC,2445000.541667,29.4519,-93.4333,0037,14.6000
1982-01-31 01:30:00 UTC,2445000.562500,29.4519,-93.4333,0037,14.5000
1982-01-31 02:00:00 UTC,2445000.583333,29.4519,-93.4333,0037,14.4000
1982-01-31 02:30:00 UTC,2445000.604167,29.4519,-93.4333,0037,14.4000
1982-01-31 03:00:00 UTC,2445000.625000,29.4519,-93.4333,0037,14.4000
1982-01-31 03:30:00 UTC,2445000.645833,29.4519,-93.4333,0037,14.4000
1982-01-31 04:00:00 UTC,2445000.666667,29.4519,-93.4333,0037,14.5000
1982-01-31 04:30:00 UTC,2445000.687500,29.4519,-93.4333,0037,14.6000
1982-01-31 05:00:00 UTC,2445000.708333,29.4519,-93.4333,0037,14.7000
1982-01-31 05:30:00 UTC,2445000.729167,29.4519,-93.4333,0037,14.6000
1982-01-31 06:00:00 UTC,2445000.750000,29.4519,-93.4333,0037,14.4000
1982-01-31 06:30:00 UTC,2445000.770833,29.4519,-93.4333,0037,14.3000
1982-01-31 07:00:00 UTC,2445000.791667,29.4519,-93.4333,0037,14.2000
1982-01-31 07:30:00 UTC,2445000.812500,29.4519,-93.4333,0037,14.3000
1982-01-31 08:00:00 UTC,2445000.833333,29.4519,-93.4333,0037,14.4000
1982-01-31 08:30:00 UTC,2445000.854167,29.4519,-93.4333,0037,14.3000
1982-01-31 09:00:00 UTC,2445000.875000,29.4519,-93.4333,0037,14.2000
1982-01-31 09:30:00 UTC,2445000.895833,29.4519,-93.4333,0037,14.1000
1982-01-31 10:00:00 UTC,2445000.916667,29.4519,-93.4333,0037,14.0000
1982-01-31 10:30:00 UTC,2445000.937500,29.4519,-93.4333,0037,13.9000
1982-01-31 11:00:00 UTC,2445000.958333,29.4519,-93.4333,0037,13.9000
1982-01-31 11:30:00 UTC,2445000.979167,29.4519,-93.4333,0037,13.8000
1982-01-31 12:00:00 UTC,2445001.000000,29.4519,-93.4333,0037,13.8000
1982-01-31 12:30:00 UTC,2445001.020833,29.4519,-93.4333,0037,13.8000
1982-01-31 13:00:00 UTC,2445001.041667,29.4519,-93.4333,0037,13.8000
1982-01-31 13:30:00 UTC,2445001.062500,29.4519,-93.4333,0037,13.8000
1982-01-31 14:00:00 UTC,2445001.083333,29.4519,-93.4333,0037,13.8000
1982-01-31 14:30:00 UTC,2445001.104167,29.4519,-93.4333,0037,13.7000
1982-01-31 15:00:00 UTC,2445001.125000,29.4519,-93.4333,0037,13.7000
1982-01-31 15:30:00 UTC,2445001.145833,29.4519,-93.4333,0037,13.6000
1982-01-31 16:00:00 UTC,2445001.166667,29.4519,-93.4333,0037,13.6000
1982-01-31 16:30:00 UTC,2445001.187500,29.4519,-93.4333,0037,13.5000
1982-01-31 17:00:00 UTC,2445001.208333,29.4519,-93.4333,0037,13.5000
1982-01-31 17:30:00 UTC,2445001.229167,29.4519,-93.4333,0037,13.5000
1982-01-31 18:00:00 UTC,2445001.250000,29.4519,-93.4333,0037,13.5000
1982-01-31 18:30:00 UTC,2445001.270833,29.4519,-93.4333,0037,13.5000
1982-01-31 19:00:00 UTC,2445001.291667,29.4519,-93.4333,0037,13.5000
1982-01-31 19:30:00 UTC,2445001.312500,29.4519,-93.4333,0037,13.4000
1982-01-31 20:00:00 UTC,2445001.333333,29.4519,-93.4333,0037,13.4000